Weather History for KCMI - July, 2013

Change the Weather History Date:

Thursday, July 18, 2013

  Actual Average Record
Temperature  
Mean Temperature 82 °F 74 °F  
Max Temperature 92 °F 84 °F 99 °F (2012)
Min Temperature 72 °F 64 °F 59 °F (2000)
Degree Days  
Heating Degree Days 0 0  
Month to date heating degree days 0 0  
Since 1 June heating degree days 13 17  
Since 1 July heating degree days 0 0  
Cooling Degree Days 17 9  
Month to date cooling degree days 177 171  
Year to date cooling degree days 528 486  
Since 1 June cooling degree days 396 394  
Growing Degree Days 32 (Base 50)    
Moisture  
Dew Point 74 °F    
Average Humidity 75    
Maximum Humidity 93    
Minimum Humidity 56    
Precipitation  
Precipitation 0.00 in 0.15 in 1.04 in (2003)
Month to date precipitation 1.20 2.55  
Year to date precipitation 20.13 21.88  
Sea Level Pressure  
Sea Level Pressure 30.12 in    
Wind  
Wind Speed 4 mph (SW)    
Max Wind Speed 10 mph    
Max Gust Speed -    
Visibility 9 miles    
Events Fog , Thunderstorm    
T = Trace of Precipitation, MM = Missing Value Source: NWS Daily Summary

Daily Weather History Graph

Daily Weather History Graph

Search for Another Location

Airport or City:

Trip Planner

Search our weather history database for the weather conditions in past years. The results will help you decide how hot, cold, wet, or windy it might be!

Date:

Astronomy

Jul. 18, 2013 Rise Set
Actual Time 5:39 AM CDT 8:18 PM CDT
Civil Twilight 5:07 AM CDT 8:50 PM CDT
Nautical Twilight 4:28 AM CDT 9:29 PM CDT
Astronomical Twilight 3:43 AM CDT 10:14 PM CDT
Moon 4:15 PM CDT (7/18) 1:29 AM CDT (7/18)
Length of Visible Light 15h 42m
Length of Day
14h 39m
Waxing Gibbous, 77% of the Moon is Illuminated
Jul 18
Waxing Gibbous
Jul 22
Full
Jul 29
Last Quarter
Aug 6
New
Aug 14
First Quarter

Hourly Weather History & Observations

Time (CDT) Temp. Heat Index Dew Point Humidity Pressure Visibility Wind Dir Wind Speed Gust Speed Precip Events Conditions
12:53 AM 73.9 °F - 72.0 °F 93% 30.21 in 8.0 mi Calm Calm - N/A   Clear
1:53 AM 73.9 °F - 72.0 °F 93% 30.20 in 8.0 mi Calm Calm - N/A   Clear
2:53 AM 73.9 °F - 71.1 °F 91% 30.20 in 8.0 mi West 3.5 mph - N/A   Clear
3:53 AM 72.0 °F - 70.0 °F 93% 30.19 in 7.0 mi Calm Calm - N/A   Clear
4:53 AM 72.0 °F - 70.0 °F 93% 30.19 in 7.0 mi Calm Calm - N/A   Clear
5:53 AM 72.0 °F - 70.0 °F 93% 30.18 in 4.0 mi Calm Calm - N/A Fog Clear
6:53 AM 77.0 °F - 73.9 °F 90% 30.19 in 5.0 mi Calm Calm - N/A   Clear
7:53 AM 80.1 °F 84.5 °F 73.9 °F 81% 30.19 in 8.0 mi WSW 3.5 mph - N/A   Clear
8:53 AM 84.0 °F 91.9 °F 75.0 °F 74% 30.19 in 10.0 mi Variable 3.5 mph - N/A   Clear
9:53 AM 86.0 °F 95.1 °F 75.0 °F 70% 30.18 in 10.0 mi SW 4.6 mph - N/A   Clear
10:53 AM 87.1 °F 96.3 °F 75.0 °F 67% 30.17 in 10.0 mi SW 4.6 mph - N/A   Mostly Cloudy
11:53 AM 90.0 °F 100.2 °F 75.0 °F 61% 30.16 in 10.0 mi South 4.6 mph - N/A   Partly Cloudy
12:53 PM 91.0 °F 100.4 °F 73.9 °F 57% 30.14 in 10.0 mi Variable 5.8 mph - N/A   Scattered Clouds
1:53 PM 91.0 °F 101.6 °F 75.0 °F 59% 30.12 in 10.0 mi SW 9.2 mph - N/A   Partly Cloudy
2:53 PM 90.0 °F 99.0 °F 73.9 °F 59% 30.09 in 10.0 mi SW 5.8 mph - N/A   Partly Cloudy
3:32 PM 91.4 °F 102.5 °F 75.2 °F 59% 30.10 in 10.0 mi WSW 6.9 mph - N/A Thunderstorm Clear
3:53 PM 91.9 °F 100.7 °F 73.0 °F 54% 30.07 in 10.0 mi SW 5.8 mph - N/A Thunderstorm Thunderstorm
4:06 PM 91.4 °F 100.1 °F 73.4 °F 55% 30.08 in 10.0 mi SW 5.8 mph - N/A   Scattered Clouds
4:53 PM 91.9 °F 103.2 °F 75.0 °F 58% 30.05 in 10.0 mi SSW 6.9 mph - N/A   Partly Cloudy
5:53 PM 90.0 °F 99.0 °F 73.9 °F 59% 30.04 in 10.0 mi SSW 6.9 mph - N/A   Clear
6:53 PM 89.1 °F 100.2 °F 75.9 °F 65% 30.03 in 10.0 mi SW 4.6 mph - N/A   Clear
7:53 PM 84.9 °F 95.3 °F 77.0 °F 77% 30.03 in 10.0 mi Calm Calm - N/A   Clear
8:53 PM 80.1 °F 85.4 °F 75.9 °F 87% 30.03 in 9.0 mi South 4.6 mph - N/A   Clear
9:53 PM 79.0 °F - 75.0 °F 88% 30.04 in 9.0 mi SSW 4.6 mph - N/A   Clear
10:53 PM 78.1 °F - 73.9 °F 87% 30.03 in 8.0 mi South 4.6 mph - N/A   Clear
11:53 PM 77.0 °F - 73.9 °F 90% 30.02 in 7.0 mi South 4.6 mph - N/A   Clear